Theta_e
334 334 335 334 334 336 337 339 343 346 348 347 350 353 350 347 350 350 346 347 345 343 348 352 355 357 359 357 356 356 356 353 355
331 333 335 335 335 336 336 338 341 344 347 348 350 351 353 352 348 352 349 344 348 350 346 352 355 356 355 359 357 355 353 357 354
326 332 335 336 336 335 337 338 341 343 348 349 351 351 353 354 354 350 353 350 346 346 348 352 352 356 356 358 359 358 354 355 357
325 328 335 336 337 336 338 338 340 342 344 350 351 354 352 355 357 356 351 353 352 348 347 350 359 359 357 357 357 358 356 352 354
320 328 336 337 338 337 337 337 338 340 344 348 352 353 355 353 356 359 355 350 351 351 349 352 352 360 359 358 357 356 356 355 356
318 324 333 337 338 336 336 336 337 340 342 347 350 353 354 356 356 356 358 356 353 353 353 353 356 353 359 358 357 357 356 357 356
322 321 330 335 337 337 337 337 338 339 341 344 350 352 355 355 357 357 358 359 358 354 356 355 358 358 355 358 357 357 357 358 357
322 324 329 332 335 338 339 338 338 340 341 343 345 353 354 355 357 359 359 358 360 359 355 358 356 356 359 359 359 358 356 356 357
318 322 324 326 329 336 338 340 340 341 341 344 346 345 353 355 358 358 359 359 359 360 359 356 357 358 356 359 360 346 343 353 356
319 322 322 321 325 328 337 341 343 343 344 345 346 347 348 353 356 357 358 360 360 359 359 360 358 357 360 359 360 340 338 342 356
317 319 319 321 320 322 328 338 347 347 347 348 347 347 349 350 355 357 358 358 358 359 360 359 359 359 359 360 361 340 334 338 356
328 329 331 330 331 332 333 333 332 348 347 349 350 350 350 352 355 356 357 357 358 360 359 359 359 360 360 360 361 334 332 334 353
329 332 334 337 337 333 332 335 338 341 346 350 348 349 353 357 356 357 356 358 358 361 361 359 360 359 361 352 360 337 328 333 355
331 330 332 338 340 339 337 337 336 337 334 341 350 352 353 355 357 357 359 359 360 360 361 361 360 360 360 362 358 358 326 324 356
326 327 329 331 336 341 346 341 337 332 340 340 344 354 354 353 354 357 360 360 360 361 361 360 359 359 359 362 362 337 330 321 325
317 324 326 329 332 342 347 348 340 339 340 346 351 355 353 354 355 356 353 359 359 359 360 360 359 358 358 358 360 361 326 318 320
313 316 323 328 326 335 340 347 350 349 341 351 353 350 356 355 354 355 353 358 360 360 360 360 358 358 357 357 357 359 359 340 328
311 313 321 326 325 328 337 343 354 358 352 350 346 346 358 357 357 353 354 327 322 351 344 342 359 359 357 355 354 354 338 343 341
311 310 313 325 327 333 338 342 350 355 357 358 356 347 351 356 355 356 344 327 322 303 302 300 300 314 342 326 316 305 305 308 313
311 312 312 324 325 331 338 342 346 352 352 352 353 355 348 353 349 354 342 337 333 328 314 303 299 299 301 312 306 301 302 303 304
Wind_Speed
32 31 28 28 28 26 24 24 24 23 23 22 20 18 19 17 12 8 9 7 6 6 5 8 12 10 8 10 9 7 6 4 5
31 30 30 29 28 26 26 23 25 24 23 23 23 22 17 17 16 12 11 12 6 5 6 6 10 12 11 9 9 9 7 5 6
25 28 29 27 27 25 24 24 23 24 23 23 22 21 17 16 17 16 11 9 9 10 7 6 6 11 12 12 10 11 9 5 6
21 20 27 26 25 25 25 24 21 22 22 22 20 19 19 17 16 16 14 10 11 10 7 8 6 9 10 12 12 9 9 7 7
15 19 27 26 26 26 24 23 21 21 20 21 22 20 17 17 14 14 14 14 11 10 11 7 9 9 11 12 12 10 9 10 10
13 14 23 25 25 24 23 22 22 21 22 21 20 18 18 16 17 16 15 15 15 12 12 13 11 10 13 14 13 12 12 12 11
9 10 21 23 23 25 23 22 22 21 21 21 20 20 20 19 18 18 16 15 17 16 14 14 13 12 12 12 15 15 14 13 14
9 10 14 19 23 23 23 22 21 21 22 21 21 21 20 21 19 17 17 17 16 16 16 13 16 15 11 11 12 12 15 15 16
11 11 10 10 8 17 22 23 21 22 21 21 20 20 21 20 19 18 19 18 17 16 16 17 15 14 16 15 12 16 20 19 15
10 10 9 10 8 8 15 17 17 17 18 19 19 20 20 18 19 19 19 18 17 17 17 16 17 17 15 18 18 19 21 22 16
10 9 10 9 9 9 4 8 16 17 16 14 18 17 17 19 17 19 18 18 18 18 16 17 16 17 18 17 17 18 19 20 20
13 12 9 7 8 7 9 11 6 10 16 14 12 15 15 16 17 18 18 20 19 18 16 15 16 15 17 19 18 16 18 15 16
14 14 13 12 10 7 9 8 9 2 9 16 18 16 12 14 16 18 19 19 18 16 16 16 12 15 16 17 18 16 19 17 12
15 14 16 16 13 9 6 5 6 6 4 1 4 3 8 11 13 15 16 16 15 15 14 13 14 14 14 16 15 15 18 21 16
14 14 15 17 16 15 12 5 4 6 3 4 2 6 8 8 8 9 9 14 13 13 13 13 12 13 12 11 13 15 15 20 23
11 10 10 11 13 16 16 13 2 3 6 2 4 4 8 10 8 10 9 12 11 10 11 11 11 11 10 11 9 9 15 18 20
8 9 8 9 12 14 15 15 15 13 7 7 6 5 6 6 9 7 8 5 8 10 10 10 10 10 11 9 6 9 8 7 8
6 7 7 7 9 11 13 14 11 15 8 5 2 4 5 7 7 10 6 5 2 6 3 6 9 10 7 8 8 9 8 9 8
3 8 9 6 8 11 15 13 10 7 8 7 7 6 4 5 5 7 7 8 5 11 8 7 6 7 10 2 4 5 4 8 11
7 6 10 6 7 12 13 12 12 7 6 7 8 8 6 5 6 6 8 8 8 7 4 11 15 13 10 7 10 8 11 13 15
Wind_Direction
188 184 184 181 182 181 182 177 175 178 181 186 189 187 198 206 204 199 204 191 196 202 183 179 198 198 185 191 187 186 183 181 189
186 182 180 180 180 180 181 179 178 181 184 188 190 195 195 200 206 204 202 208 195 196 205 186 194 197 193 182 186 193 189 178 188
184 181 176 178 177 178 181 184 181 182 182 189 192 194 195 199 201 207 204 189 199 209 218 222 181 193 192 186 185 194 188 180 177
184 174 175 176 175 177 180 185 179 183 181 185 189 192 198 199 201 204 205 201 202 207 201 209 175 171 181 192 195 188 183 181 181
169 177 172 173 173 175 179 183 182 183 182 184 190 194 191 202 201 200 199 208 207 201 210 203 192 186 186 190 199 192 182 185 200
188 155 166 172 171 175 180 181 184 184 187 189 187 188 194 193 201 202 200 200 208 206 206 212 212 194 192 195 194 191 200 196 200
161 151 164 172 171 178 181 182 184 185 190 188 185 189 192 197 199 201 201 201 202 207 208 209 212 213 206 191 195 197 198 200 206
138 149 155 162 175 178 182 182 185 187 188 189 189 188 193 199 198 196 200 205 204 203 210 209 213 216 213 202 198 200 201 206 209
81 94 96 103 128 183 184 181 183 188 188 192 188 195 196 197 194 195 198 201 204 203 206 212 211 209 214 214 212 204 199 204 210
86 77 71 77 104 118 181 187 183 182 187 188 194 197 199 195 194 196 199 199 200 206 209 208 212 215 211 218 219 207 205 204 213
84 68 50 42 52 40 21 156 184 182 181 177 191 197 195 198 194 196 197 200 202 206 208 209 211 214 216 219 222 208 207 205 216
68 66 53 51 64 63 36 35 21 180 184 184 174 190 192 191 191 193 194 201 202 205 209 212 215 216 218 222 227 205 201 196 219
47 44 40 26 22 42 40 14 21 88 188 185 197 198 180 178 187 192 197 198 200 202 208 213 213 221 222 224 230 206 199 196 220
43 39 27 15 15 16 3 19 25 29 33 80 252 184 173 174 182 190 194 196 197 200 204 208 215 222 225 229 224 225 200 196 215
27 34 22 17 6 351 337 347 20 341 297 269 313 196 186 189 182 182 178 186 193 196 198 207 212 218 227 230 230 223 209 197 211
15 14 25 19 5 348 345 344 328 233 261 235 259 233 207 195 176 185 185 183 186 191 194 204 211 218 225 231 233 232 215 196 204
6 4 357 21 5 348 338 336 332 313 249 199 189 222 225 191 181 178 185 162 183 192 199 206 214 216 226 229 222 227 223 201 202
352 349 346 18 356 333 323 322 331 331 321 313 240 240 237 199 184 185 152 81 4 220 180 230 211 219 210 211 226 229 226 197 178
1 345 345 354 352 324 314 315 310 324 341 348 329 257 254 220 177 174 137 141 121 55 53 28 14 256 204 141 106 97 162 169 166
351 345 344 339 332 303 300 299 307 310 342 331 313 296 235 226 198 173 149 155 145 131 54 69 50 40 56 97 135 112 95 90 92